Meath Environmental Platform

Observations for Trim Market St

Time AQI Temp °C Hum % Pres Pa CO μg/m³ H₂S μg/m³ NO μg/m³ NO₂ μg/m³ O₃ μg/m³ SO₂ μg/m³ PM1 μg/m³ PM2.5 μg/m³ PM10 μg/m³
Tuesday 18 August 2026
05:53 2 17.5 77 18,543 0.12 0 1.91 5.86 68.36 0 0.71 2.72 5.78
05:52 2 17.5 77 18,611 0.13 0 1.9 6.71 68.72 0 2.14 5.1 9.29
05:51 2 17.5 77 18,702 0.12 0 1.9 6 71.58 0 1.43 3.2 5.78
05:50 2 17.5 77 18,788 0.1 0 1.9 5.76 67.4 0 1.43 2.73 6.36
05:49 2 17.5 77 18,938 0.12 0 1.9 6.43 76.09 0 2.14 2.73 6.36
05:48 2 17.5 77 19,141 0.12 0 1.9 6.54 78.46 0 1.43 3.68 7.53
05:47 2 17.5 77 19,408 0.11 0 1.9 6.65 73.57 0 1.43 4.16 7.53
05:45 2 17.5 77 20,152 0.12 0 1.91 6.87 69.74 0 1.43 3.21 6.36
05:40 2 17.5 76 22,322 0.1 0 1.9 6.49 68.43 0 1.43 3.22 5.77
05:36 2 17.5 76 25,363 0.1 0 1.9 7.14 76.73 0 0.71 1.81 3.99
05:35 2 17.5 76 26,139 0.11 0 1.9 7.06 75.1 0 0 3.24 6.94
05:34 2 17.5 76 26,861 0.11 0 1.9 7.19 78.83 0 0.71 2.29 5.17
05:25 2 17.5 76 29,758 0.09 0 1.89 5.35 69.77 0 1.43 2.79 5.16
05:24 2 17.6 76 29,937 0.09 0 1.89 5.98 71.51 0 1.43 2.79 5.16
05:23 2 17.5 76 30,160 0.1 0 1.89 6.39 72.42 0 0.71 2.31 5.75
05:22 2 17.6 76 30,398 0.09 0 1.89 5.26 68.17 0 0.71 2.31 5.16
05:21 2 17.6 76 30,670 0.09 0 1.89 6.34 69.04 0 0.71 2.79 5.16
05:20 2 17.6 76 30,993 0.1 0 1.89 5.43 69.01 0 1.43 2.79 5.16
05:19 2 17.6 76 31,202 0.1 0 1.89 6 75.58 0 1.43 3.75 7.53
05:18 2 17.6 76 31,413 0.09 0 1.9 4.92 68.86 0 0.71 1.84 3.97